Flag for China Weather past 2 weeks in Shantou, Guangdong, China

Now
70 °F

Passing clouds.


Feels Like: 70 °F
Forecast: 72 / 82 °F
Wind: 3 mph from Northeast

Location: Shantou Airport

Current Time: Oct 24, 2014 at 2:13:13 AM

Latest Report: Oct 24, 2014 at 1:00 AM


Visibility: 5 mi

Pressure: 30.04 "Hg

Humidity: 88%

Dew point: 66 °F

Location of ShantouLocation

Historic Weather in Shantou — Graph

°F

Shantou temperature yesterday

Maximum temperature yesterday: 77 °F (at 2:00 PM)
Minimum temperature yesterday: 73 °F (at 1:00 AM)
Average temperature yesterday: 74 °F

Past Weeks' High & Low Weather Summary

 TemperatureHumidityPressure
High91 °F (Oct 11, 2:00 PM)100% (Oct 21, 2:00 AM)30.15 "Hg (Oct 21, 2:00 AM)
Low63 °F (Oct 17, 4:00 AM)37% (Oct 17, 2:00 PM)29.74 "Hg (Oct 10, 3:00 PM)
Average77 °F70%29.99 "Hg
* Reported Oct 9 1:00 AM — Oct 24 1:00 AM, Shantou, Weather by CustomWeather, © 2014

Note: Actual official high and low records may vary slightly from our data, if they occured in-between our weather recording intervals... More about our weather records

Advertising

Shantou weather history for previous 24 hours

 ConditionsComfort  
Time TempWeatherWind HumidityBarometerVisibility
1:00 AM
Oct 24
70 °FPassing clouds.3 mph88%30.04 "Hg5 mi
12:00 AM72 °FPassing clouds.6 mph78%30.04 "Hg5 mi
11:00 PM
Oct 23
73 °FPassing clouds.6 mph78%30.04 "Hg5 mi
10:00 PM73 °FPassing clouds.6 mph74%30.07 "HgN/A
9:00 PM73 °FPassing clouds.6 mph78%30.07 "Hg6 mi
8:00 PM73 °FPassing clouds.3 mph74%30.04 "Hg5 mi
7:00 PM73 °FPassing clouds.1 mph74%30.04 "Hg4 mi
6:00 PM73 °FFog.No wind78%30.01 "Hg3 mi
5:00 PM75 °FPartly sunny.1 mph74%30.01 "Hg2 mi
4:00 PM75 °FPartly sunny.1 mph69%30.01 "Hg4 mi
3:00 PM77 °FPartly sunny.1 mph65%30.01 "Hg4 mi
2:00 PM77 °FPartly sunny.1 mph65%30.01 "Hg4 mi
1:00 PM75 °FOvercast.1 mph69%30.04 "Hg5 mi
12:00 PM75 °FOvercast.6 mph69%30.07 "Hg4 mi
11:00 AM75 °FOvercast.6 mph69%30.07 "Hg5 mi
10:00 AM75 °FPartly sunny.8 mph69%30.09 "Hg5 mi
9:00 AM73 °FPartly sunny.6 mph74%30.07 "Hg5 mi
8:00 AM73 °FPartly sunny.3 mph78%30.07 "Hg4 mi
7:00 AM73 °FPartly sunny.3 mph78%30.04 "Hg4 mi
6:00 AM73 °FPassing clouds.3 mph78%30.04 "HgN/A
5:00 AM73 °FPassing clouds.6 mph78%30.01 "HgN/A
4:00 AM73 °FPassing clouds.6 mph78%30.01 "HgN/A
3:00 AM73 °FPassing clouds.8 mph78%30.01 "HgN/A
2:00 AM73 °FPassing clouds.8 mph74%30.01 "HgN/A
Weather by CustomWeather, © 2014

See weather overviewHow to use our weather pages